This demonstration page uses our WeatherBlox Daily Observations layout. Learn more.

Left ArrowRight Arrow

34.74481, -87.66753

Hourly Observations for March 25, 2021

Temp ( °F °C ) Dew Point ( °F °C ) Humidity (%) Winds ( mph kmh ) Pressure ( in mb ) Visibility ( mi km ) Precip ( " mm )
12:53 am 00:53 Clear 62 16.7 51 10.6 67 67 SE 3 6 29.86 1011 10 16 0.00 0.00
1:53 am 01:53 Mostly Cloudy 64 17.8 54 12.2 70 70 SSE 5 7 29.86 1011 10 16 0.00 0.00
2:53 am 02:53 Mostly Cloudy 63 17.2 54 12.2 73 73 SE 5 7 29.82 1010 10 16 0.00 0.00
3:53 am 03:53 Cloudy with Light Rain 64 17.8 57 13.9 78 78 SE 15 24 29.77 1008 8 13 0.02 0.51
4:53 am 04:53 Cloudy with Light Rain 63 17.2 57 13.9 81 81 SE 8 13 29.77 1008 7 11 0.10 2.54
5:53 am 05:53 Cloudy with Heavy Rain 63 17.2 58 14.4 84 84 SE 9 15 29.79 1009 3 5 0.12 3.05
5:56 am 05:56 Cloudy with Heavy Rain 63 17.2 58 14.4 84 84 ESE 8 13 29.79 1009 3 4 0.01 0.25
6:05 am 06:05 Cloudy with Rain 63 17.2 58 14.4 84 84 SSE 6 9 29.81 1010 3 5 0.03 0.76
6:20 am 06:20 Cloudy with Heavy Rain 63 17.2 58 14.4 84 84 WSW 6 9 29.84 1011 2 3 0.08 2.03
6:38 am 06:38 Cloudy with Nearby Thunderstorms 63 17.2 58 14.4 84 84 ESE 12 19 29.79 1009 3 4 0.15 3.81
6:45 am 06:45 Cloudy with Nearby Thunderstorms 63 17.2 58 14.4 84 84 ESE 9 15 29.79 1009 2 3 0.18 4.57
6:53 am 06:53 Cloudy with Heavy Rain 63 17.2 58 14.4 84 84 ESE 15 24 29.79 1009 2 3 0.22 5.59
7:11 am 07:11 Cloudy with Thunderstorms 63 17.2 58 14.4 84 84 ESE 10 17 29.79 1009 3 5 0.09 2.29
7:18 am 07:18 Cloudy with Strong Thunderstorms 63 17.2 58 14.4 84 84 SE 13 20 29.79 1009 3 4 0.14 3.56
7:33 am 07:33 Cloudy with Strong Thunderstorms 63 17.2 58 14.4 84 84 SE 12 19 29.78 1009 2 2 0.25 6.35
7:38 am 07:38 Cloudy with Rain 63 17.2 58 14.4 84 84 ESE 9 15 29.79 1009 2 3 0.29 7.37
7:45 am 07:45 Cloudy with Nearby Thunderstorms 63 17.2 57 13.9 81 81 E 15 24 29.76 1008 5 8 0.34 8.64
7:53 am 07:53 Cloudy with Thunderstorms 63 17.2 57 13.9 81 81 E 14 22 29.76 1008 7 11 0.39 9.91
7:59 am 07:59 Cloudy with Strong Thunderstorms 63 17.2 57 13.9 81 81 ENE 9 15 29.78 1009 2 3 0.04 1.02
8:09 am 08:09 Cloudy with Thunderstorms 63 17.2 57 13.9 81 81 N 6 9 29.77 1008 4 6 0.11 2.79
8:15 am 08:15 Cloudy with Thunderstorms 63 17.2 58 14.4 84 84 NE 10 17 29.77 1008 10 16 0.14 3.56
8:30 am 08:30 Cloudy with Nearby Thunderstorms 63 17.2 57 13.9 81 81 VRB 5 7 29.78 1009 3 4 0.24 6.10
8:37 am 08:37 Cloudy with Rain 64 17.8 58 14.4 81 81 E 9 15 29.77 1008 3 4 0.28 7.11
8:41 am 08:41 Cloudy with Heavy Rain 63 17.2 57 13.9 81 81 E 12 19 29.78 1009 2 3 0.30 7.62
8:46 am 08:46 Cloudy with Rain 63 17.2 58 14.4 84 84 VRB 6 9 29.78 1009 2 3 0.33 8.38
8:53 am 08:53 Cloudy with Light Rain 63 17.2 58 14.4 84 84 E 9 15 29.76 1008 4 6 0.38 9.65
9:28 am 09:28 Cloudy with Nearby Thunderstorms 63 17.2 58 14.4 84 84 N 8 13 29.79 1009 9 14 0.19 4.83
9:32 am 09:32 Cloudy with Nearby Thunderstorms 63 17.2 58 14.4 84 84 N 8 13 29.79 1009 9 14 0.21 5.33
9:40 am 09:40 Cloudy with Strong Thunderstorms 63 17.2 58 14.4 84 84 VRB 3 6 29.81 1010 2 3 0.25 6.35
9:46 am 09:46 Cloudy with Strong Thunderstorms 63 17.2 59 15 87 87 Calm 29.80 1009 1 1 0.28 7.11
9:53 am 09:53 Cloudy with Strong Thunderstorms 63 17.2 58 14.4 84 84 ENE 14 22 29.78 1009 1 2 0.32 8.13
10:01 am 10:01 Cloudy with Thunderstorms 63 17.2 58 14.4 84 84 VRB 6 9 29.79 1009 3 5 0.03 0.76
10:05 am 10:05 Cloudy with Nearby Thunderstorms 63 17.2 58 14.4 84 84 VRB 3 6 29.78 1009 5 8 0.05 1.27
10:21 am 10:21 Cloudy 64 17.8 59 15 84 84 E 8 13 29.78 1009 10 16 0.12 3.05
10:53 am 10:53 Cloudy 64 17.8 60 15.6 87 87 E 7 11 29.78 1008 10 16 0.24 6.10
11:13 am 11:13 Cloudy 64 17.8 59 15 84 84 E 8 13 29.78 1009 10 16 0.06 1.52
11:53 am 11:53 Cloudy 65 18.3 60 15.6 84 84 ESE 8 13 29.77 1008 10 16 0.11 2.79
12:53 pm 12:53 Cloudy 67 19.4 61 16.1 81 81 SE 8 13 29.76 1008 10 16 0.00 0.00
1:51 pm 13:51 Cloudy 72 22 63 17 73 73 ESE 8 13 29.68 1005 10 16 0.00 0.00
1:53 pm 13:53 Cloudy 71 21.7 64 17.8 79 79 ESE 8 13 29.69 1005 10 16 0.00 0.00
2:34 pm 14:34 Cloudy with Nearby Thunderstorms 71 21.7 64 17.8 79 79 ESE 7 11 29.68 1005 10 16 0.00 0.00
2:50 pm 14:50 Cloudy with Thunderstorms 70 21 64 18 83 83 SSE 5 7 29.71 1006 5 8 0.00 0.00
2:51 pm 14:51 Cloudy with Thunderstorms 70 21.1 65 18.3 84 84 SSE 5 7 29.70 1006 5 8 0.00 0.00
3:14 pm 15:14 Cloudy with Thunderstorms 71 21.7 63 17.2 76 76 S 18 30 29.69 1006 10 16 0.01 0.25
3:21 pm 15:21 Cloudy with Nearby Thunderstorms 71 21.7 62 16.7 73 73 SSW 15 24 29.68 1005 10 16 0.01 0.25
3:46 pm 15:46 Cloudy with Thunderstorms 71 21.7 62 16.7 73 73 SW 5 7 29.69 1006 10 16 0.01 0.25
3:53 pm 15:53 Cloudy with Thunderstorms 70 21.1 62 16.7 76 76 W 8 13 29.70 1006 10 16 0.02 0.51
4:10 pm 16:10 Cloudy with Light Rain 70 21.1 63 17.2 79 79 Calm 29.70 1006 9 14 0.00 0.00
4:53 pm 16:53 Cloudy 73 22.8 64 17.8 74 74 S 8 13 29.66 1005 10 16 0.00 0.00
5:53 pm 17:53 Mostly Cloudy 75 23.9 65 18.3 71 71 S 15 24 29.65 1004 10 16 0.01 0.25
6:18 pm 18:18 Partly Cloudy 74 23.3 65 18.3 74 74 S 17 28 29.64 1004 10 16 0.00 0.00
6:53 pm 18:53 Partly Cloudy 74 23.3 65 18.3 74 74 SSW 15 24 29.65 1004 10 16 0.00 0.00
7:01 pm 19:01 Mostly Cloudy 75 23.9 65 18.3 71 71 SSW 17 28 29.65 1004 10 16 0.00 0.00
7:29 pm 19:29 Partly Cloudy 74 23.3 65 18.3 74 74 SSW 17 28 29.67 1005 10 16 0.00 0.00
7:37 pm 19:37 Mostly Cloudy 74 23.3 65 18.3 74 74 SSW 15 24 29.66 1004 10 16 0.00 0.00
7:45 pm 19:45 Partly Cloudy 74 23.3 65 18.3 74 74 SSW 18 30 29.66 1004 10 16 0.00 0.00
7:53 pm 19:53 Partly Cloudy 74 23.3 65 18.3 74 74 SSW 17 28 29.67 1005 10 16 0.00 0.00
8:53 pm 20:53 Mostly Cloudy with Light Rain 72 22.2 62 16.7 71 71 W 24 39 29.75 1008 7 11 0.00 0.00
9:53 pm 21:53 Clear 68 20 59 15 73 73 W 17 28 29.81 1009 10 16 0.01 0.25
10:53 pm 22:53 Clear 66 18.9 57 13.9 73 73 WNW 14 22 29.85 1011 10 16 0.00 0.00
11:53 pm 23:53 Partly Cloudy 64 17.8 55 12.8 73 73 W 10 17 29.88 1012 10 16 0.00 0.00

Powered by AerisWeather